Home   Weather   Elizabeth   Past weeks

Flag for USA Past Weather in Elizabeth, New Jersey, USA — Yesterday and Last 2 Weeks

45 °F

Mostly cloudy.

Feels Like: 40 °F
Forecast: 41 / 59 °F
Wind: 10 mph from East

Location: Newark International Airport

Current Time: Oct 27, 2016 at 8:53:29 AM

Latest Report: Oct 27, 2016 at 7:51 AM

Visibility: 10 mi

Pressure: 30.42 "Hg

Humidity: 53%

Dew Point: 29 °F

Location of ElizabethLocation

Past Weather in Elizabeth — Graph


Elizabeth Temperature Yesterday

Maximum temperature yesterday: 52 °F (at 1:51 PM)
Minimum temperature yesterday: 37 °F (at 5:51 AM)
Average temperature yesterday: 45 °F

High & Low Weather Summary for the Past Weeks

High86 °F (Oct 19, 3:51 PM)97% (Oct 21, 5:51 AM)30.46 "Hg (Oct 21, 5:51 AM)
Low37 °F (Oct 26, 5:51 AM)27% (Oct 24, 3:51 PM)29.41 "Hg (Oct 22, 7:51 AM)
Average59 °F65%30.05 "Hg
* Reported Oct 12 6:51 AM — Oct 27 6:51 AM, Elizabeth, Weather by CustomWeather, © 2016

Note: Actual official high and low records may vary slightly from our data, if they occured in-between our weather recording intervals... More about our weather records


Elizabeth Weather History for the Previous 24 Hours

Scroll right to see more
Time TempWeatherWind HumidityBarometerVisibility
6:51 AM
Thu, Oct 27
45 °FMostly cloudy.8 mph51%30.43 "Hg10 mi
5:51 AM43 °FMostly cloudy.7 mph53%30.44 "Hg10 mi
4:51 AM42 °FOvercast.10 mph53%30.42 "Hg10 mi
3:51 AM42 °FOvercast.9 mph51%30.43 "Hg10 mi
2:51 AM43 °FMostly cloudy.9 mph47%30.44 "Hg10 mi
1:51 AM43 °FMostly cloudy.8 mph47%30.45 "Hg10 mi
12:51 AM44 °FOvercast.12 mph43%30.45 "Hg10 mi
11:51 PM
Wed, Oct 26
44 °FMostly cloudy.10 mph43%30.45 "Hg10 mi
10:51 PM44 °FMostly cloudy.10 mph47%30.45 "Hg10 mi
9:51 PM45 °FMostly cloudy.13 mph44%30.45 "Hg10 mi
8:51 PM46 °FPassing clouds.10 mph40%30.43 "Hg10 mi
7:51 PM46 °FPartly cloudy.10 mph42%30.42 "Hg10 mi
6:51 PM48 °FPartly cloudy.7 mph36%30.41 "Hg10 mi
5:51 PM49 °FPartly sunny.13 mph35%30.39 "Hg10 mi
4:51 PM50 °FPartly sunny.13 mph33%30.38 "Hg10 mi
3:51 PM51 °FPartly sunny.15 mph35%30.38 "Hg10 mi
2:51 PM49 °FPartly sunny.10 mph38%30.38 "Hg10 mi
1:51 PM52 °FPartly sunny.12 mph34%30.38 "Hg10 mi
12:51 PM51 °FPartly sunny.14 mph35%30.39 "Hg10 mi
11:51 AM49 °FBroken clouds.18 mph39%30.41 "Hg10 mi
10:51 AM48 °FScattered clouds.14 mph43%30.42 "Hg10 mi
9:51 AM45 °FPassing clouds.14 mph49%30.43 "Hg10 mi
8:51 AM42 °FPassing clouds.10 mph55%30.43 "Hg10 mi
Weather by CustomWeather, © 2016

See weather overviewHow to use our weather pages